TimeCST,TemperatureF,Dew PointF,Humidity,Sea Level PressureIn,VisibilityMPH,Wind Direction,Wind SpeedMPH,Gust SpeedMPH,PrecipitationIn,Events,Conditions,WindDirDegrees,DateUTC
12:13 AM,28.4,21.2,74,29.81,10.0,Calm,Calm,-,N/A,,Overcast,0,2013-01-08 06:13:00
12:33 AM,28.4,21.2,74,29.81,10.0,WSW,4.6,-,N/A,,Overcast,250,2013-01-08 06:33:00
12:53 AM,28.4,21.2,74,29.81,10.0,WSW,3.5,-,N/A,,Overcast,250,2013-01-08 06:53:00
1:13 AM,28.4,21.2,74,29.81,10.0,West,3.5,-,N/A,,Overcast,260,2013-01-08 07:13:00
1:33 AM,28.4,19.4,69,29.81,10.0,Calm,Calm,-,N/A,,Overcast,0,2013-01-08 07:33:00
1:53 AM,26.6,21.2,80,29.82,10.0,SW,3.5,-,N/A,,Overcast,220,2013-01-08 07:53:00
2:13 AM,26.6,19.4,74,29.83,10.0,Calm,Calm,-,N/A,,Overcast,0,2013-01-08 08:13:00
2:33 AM,26.6,21.2,80,29.83,10.0,Calm,Calm,-,N/A,,Overcast,0,2013-01-08 08:33:00
2:53 AM,26.6,21.2,80,29.84,10.0,Calm,Calm,-,N/A,,Overcast,0,2013-01-08 08:53:00
3:13 AM,24.8,19.4,80,29.83,10.0,South,3.5,-,N/A,,Mostly Cloudy,180,2013-01-08 09:13:00
3:33 AM,24.8,19.4,80,29.83,10.0,South,3.5,-,N/A,,Scattered Clouds,190,2013-01-08 09:33:00
3:53 AM,21.2,19.4,93,29.83,10.0,South,3.5,-,N/A,,Clear,190,2013-01-08 09:53:00
4:13 AM,21.2,17.6,86,29.84,10.0,South,3.5,-,N/A,,Clear,190,2013-01-08 10:13:00
4:33 AM,19.4,17.6,93,29.84,10.0,South,3.5,-,N/A,,Clear,190,2013-01-08 10:33:00
4:53 AM,19.4,15.8,86,29.85,10.0,South,3.5,-,N/A,,Clear,180,2013-01-08 10:53:00
5:13 AM,17.6,15.8,93,29.84,10.0,South,3.5,-,N/A,,Clear,180,2013-01-08 11:13:00
5:33 AM,17.6,15.8,93,29.84,10.0,South,3.5,-,N/A,,Clear,170,2013-01-08 11:33:00
5:53 AM,17.6,15.8,93,29.84,10.0,Calm,Calm,-,N/A,,Clear,0,2013-01-08 11:53:00
6:13 AM,17.6,14.0,86,29.85,10.0,Calm,Calm,-,N/A,,Clear,0,2013-01-08 12:13:00
6:34 AM,15.8,12.2,86,29.86,10.0,Calm,Calm,-,N/A,,Clear,0,2013-01-08 12:34:00
6:53 AM,15.8,12.2,86,29.87,10.0,SSE,3.5,-,N/A,,Clear,150,2013-01-08 12:53:00
7:33 AM,15.8,12.2,86,29.85,10.0,ESE,3.5,-,N/A,,Clear,120,2013-01-08 13:33:00
7:53 AM,15.8,12.2,86,29.84,10.0,East,3.5,-,N/A,,Clear,100,2013-01-08 13:53:00
8:13 AM,15.8,12.2,86,29.84,10.0,ESE,3.5,-,N/A,,Clear,110,2013-01-08 14:13:00
8:33 AM,15.8,12.2,86,29.85,10.0,SE,3.5,-,N/A,,Clear,130,2013-01-08 14:33:00
8:53 AM,17.6,14.0,86,29.84,10.0,Calm,Calm,-,N/A,,Clear,0,2013-01-08 14:53:00
9:13 AM,17.6,15.8,93,29.86,10.0,SSE,4.6,-,N/A,,Clear,150,2013-01-08 15:13:00
9:33 AM,17.6,15.8,93,29.85,10.0,SE,3.5,-,N/A,,Clear,140,2013-01-08 15:33:00
9:54 AM,19.4,17.6,93,29.85,10.0,SSE,4.6,-,N/A,,Clear,150,2013-01-08 15:54:00
10:13 AM,21.2,17.6,86,29.85,10.0,SSE,5.8,-,N/A,,Clear,150,2013-01-08 16:13:00
10:33 AM,23.0,19.4,86,29.84,10.0,SE,5.8,-,N/A,,Clear,140,2013-01-08 16:33:00
10:53 AM,24.8,19.4,80,29.84,10.0,SSE,6.9,-,N/A,,Clear,160,2013-01-08 16:53:00
11:13 AM,26.6,19.4,74,29.82,10.0,SE,6.9,-,N/A,,Clear,140,2013-01-08 17:13:00
11:33 AM,26.6,19.4,74,29.81,10.0,SE,8.1,-,N/A,,Clear,140,2013-01-08 17:33:00
11:53 AM,26.6,19.4,74,29.82,10.0,South,5.8,-,N/A,,Clear,170,2013-01-08 17:53:00
12:13 PM,26.6,19.4,74,29.80,10.0,SSE,6.9,-,N/A,,Clear,150,2013-01-08 18:13:00
12:33 PM,28.4,21.2,74,29.80,10.0,South,8.1,-,N/A,,Clear,170,2013-01-08 18:33:00
12:53 PM,28.4,21.2,74,29.78,10.0,SSE,6.9,-,N/A,,Clear,150,2013-01-08 18:53:00
1:13 PM,28.4,21.2,74,29.76,10.0,SE,8.1,-,N/A,,Scattered Clouds,130,2013-01-08 19:13:00
1:33 PM,28.4,21.2,74,29.75,10.0,SSE,8.1,-,N/A,,Scattered Clouds,150,2013-01-08 19:33:00
1:53 PM,30.2,21.2,69,29.74,10.0,SSE,6.9,-,N/A,,Scattered Clouds,160,2013-01-08 19:53:00
2:14 PM,30.2,21.2,69,29.74,10.0,SSE,6.9,-,N/A,,Scattered Clouds,150,2013-01-08 20:14:00
2:34 PM,30.2,21.2,69,29.72,10.0,SE,4.6,-,N/A,,Scattered Clouds,140,2013-01-08 20:34:00
2:54 PM,30.2,21.2,69,29.71,10.0,SE,4.6,-,N/A,,Mostly Cloudy,140,2013-01-08 20:54:00
3:13 PM,30.2,21.2,69,29.70,10.0,SE,4.6,-,N/A,,Mostly Cloudy,130,2013-01-08 21:13:00
3:33 PM,30.2,21.2,69,29.68,10.0,Calm,Calm,-,N/A,,Mostly Cloudy,0,2013-01-08 21:33:00
3:53 PM,30.2,21.2,69,29.66,10.0,SE,4.6,-,N/A,,Overcast,130,2013-01-08 21:53:00
4:13 PM,30.2,21.2,69,29.66,10.0,SE,6.9,-,N/A,,Overcast,140,2013-01-08 22:13:00
4:33 PM,30.2,21.2,69,29.64,10.0,ESE,3.5,-,N/A,,Overcast,120,2013-01-08 22:33:00
4:53 PM,30.2,21.2,69,29.63,10.0,SE,5.8,-,N/A,,Overcast,130,2013-01-08 22:53:00
5:13 PM,30.2,21.2,69,29.63,10.0,SSE,6.9,-,N/A,,Overcast,150,2013-01-08 23:13:00
5:33 PM,30.2,21.2,69,29.62,10.0,SE,6.9,-,N/A,,Overcast,140,2013-01-08 23:33:00
5:53 PM,30.2,21.2,69,29.62,10.0,SSE,8.1,-,N/A,,Overcast,150,2013-01-08 23:53:00
6:33 PM,28.4,23.0,80,29.61,3.0,SSE,13.8,19.6,N/A,Snow,Light Snow,160,2013-01-09 00:33:00
6:53 PM,28.4,24.8,86,29.60,2.0,SSE,9.2,-,N/A,Snow,Light Snow,160,2013-01-09 00:53:00
7:13 PM,28.4,26.6,93,29.61,2.0,South,9.2,16.1,N/A,Snow,Light Snow,170,2013-01-09 01:13:00
7:33 PM,28.4,26.6,93,29.60,2.0,South,8.1,-,N/A,Snow,Light Snow,170,2013-01-09 01:33:00
7:53 PM,28.4,26.6,93,29.60,3.0,South,6.9,-,N/A,Snow,Light Snow,180,2013-01-09 01:53:00
8:13 PM,28.4,24.8,86,29.60,3.0,South,8.1,-,N/A,Snow,Light Snow,180,2013-01-09 02:13:00
8:33 PM,28.4,24.8,86,29.59,5.0,South,8.1,-,N/A,Snow,Light Snow,180,2013-01-09 02:33:00
8:53 PM,32.0,24.8,75,29.58,10.0,SSW,4.6,-,N/A,,Scattered Clouds,210,2013-01-09 02:53:00
9:13 PM,28.4,24.8,86,29.58,10.0,SSW,6.9,-,N/A,,Clear,210,2013-01-09 03:13:00
9:33 PM,28.4,24.8,86,29.58,7.0,SW,5.8,-,N/A,,Clear,230,2013-01-09 03:33:00
9:53 PM,28.4,24.8,86,29.57,7.0,SW,4.6,-,N/A,,Scattered Clouds,220,2013-01-09 03:53:00
10:13 PM,28.4,24.8,86,29.57,10.0,SSW,4.6,-,N/A,,Mostly Cloudy,210,2013-01-09 04:13:00
10:33 PM,28.4,24.8,86,29.58,10.0,SW,3.5,-,N/A,,Overcast,220,2013-01-09 04:33:00
10:53 PM,28.4,24.8,86,29.58,10.0,SW,4.6,-,N/A,,Overcast,220,2013-01-09 04:53:00
11:33 PM,28.4,24.8,86,29.58,10.0,SSW,4.6,-,N/A,,Overcast,210,2013-01-09 05:33:00